Location: Centreton
(44.0842°N, 78.0430°W)
Time: 11:05:56
(UTC+00:00)

ISS - Visible Passes

Search period start: 17 May 2022 00:00
Search period end: 27 May 2022 00:00
Orbit: 415 x 422 km, 51.6° (Epoch: 17 May)

Date Brightness Start Highest point End Pass type
(mag) Time Alt. Az. Time Alt. Az. Time Alt. Az.
17 May -3.7 01:06:50 10° SW 01:10:07 55° SE 01:13:25 10° ENE visible
17 May -1.9 02:43:59 10° W 02:47:03 32° NNW 02:50:07 10° NE visible
17 May -1.2 04:21:49 10° NW 04:24:31 22° N 04:26:21 15° NE visible
17 May -1.0 05:58:42 10° NW 05:59:14 14° NW 05:59:14 14° NW visible
18 May -2.4 01:55:49 10° W 01:59:02 42° NNW 02:02:15 10° NE visible
18 May -1.2 03:33:43 10° NW 03:36:24 22° N 03:39:06 10° NE visible
18 May -1.4 05:10:49 10° NW 05:12:38 24° NNW 05:12:38 24° NNW visible
19 May -3.1 01:07:40 10° WSW 01:11:00 60° NNW 01:14:19 10° NE visible
19 May -1.3 02:45:28 10° WNW 02:48:14 23° N 02:51:00 10° NE visible
19 May -1.7 04:22:51 10° NW 04:25:44 26° NNE 04:26:05 25° NNE visible
20 May -1.5 01:57:07 10° WNW 02:00:01 26° NNW 02:02:56 10° NE visible
20 May -1.4 03:34:46 10° NW 03:37:31 23° N 03:39:29 14° NE visible
20 May -1.2 05:11:28 10° NW 05:12:23 17° NW 05:12:23 17° NW visible
21 May -1.9 01:08:42 10° W 01:11:47 32° NNW 01:14:51 10° NE visible
21 May -1.3 02:46:32 10° NW 02:49:13 22° N 02:51:54 10° NE visible
21 May -2.0 04:23:24 10° NW 04:25:45 33° NNW 04:25:45 33° NNW visible
22 May -1.3 01:58:10 10° WNW 02:00:51 22° N 02:03:33 10° NE visible
22 May -2.1 03:35:17 10° NW 03:38:19 30° NNE 03:39:05 27° NE visible
22 May -0.7 05:11:56 10° WNW 05:11:59 10° WNW 05:11:59 10° WNW visible
23 May -1.4 01:09:39 10° WNW 01:12:26 23° N 01:15:13 10° NE visible
23 May -1.7 02:47:03 10° NW 02:49:56 25° NNE 02:52:24 12° ENE visible
23 May -1.8 04:23:40 10° WNW 04:25:17 26° NW 04:25:17 26° NW visible
24 May -1.5 01:58:42 10° NW 02:01:26 23° N 02:04:11 10° ENE visible
24 May -3.1 03:35:24 10° NW 03:38:33 53° NNE 03:38:33 53° NNE visible
25 May -2.6 02:47:05 10° NW 02:50:16 38° NNE 02:51:47 24° ENE visible
25 May -1.2 04:23:52 10° WNW 04:24:40 16° WNW 04:24:40 16° WNW visible
26 May -2.1 01:58:42 10° NW 02:01:43 30° NNE 02:04:43 10° E visible
26 May -3.0 03:35:20 10° WNW 03:37:52 45° W 03:37:52 45° W visible
